Weather History for Fulton Cnty AP, Rochester, IN, IN

Change the Weather History Date:

Thursday, April 10, 2014

  Actual Average Record
Temperature  
Mean Temperature 58 °F -  
Max Temperature 69 °F 54 °F 69 °F (2014)
Min Temperature 48 °F 32 °F 48 °F (2014)
Degree Days  
Heating Degree Days 6    
Growing Degree Days 8 (Base 50)    
Moisture  
Dew Point 40 °F    
Average Humidity 54    
Maximum Humidity 94    
Minimum Humidity 35    
Precipitation  
Precipitation 0.00 in - - ()
Sea Level Pressure  
Sea Level Pressure 29.85 in    
Wind  
Wind Speed 11 mph (SW)    
Max Wind Speed 23 mph    
Max Gust Speed 33 mph    
Visibility 10 miles    
Events Rain    
Averages and records for this station are not official NWS values.
T = Trace of Precipitation, MM = Missing Value Source: NWS Daily Summary

Daily Weather History Graph

Daily Weather History Graph

Search for Another Location

Airport:

Trip Planner

Search our weather history database for the weather conditions in past years. The results will help you decide how hot, cold, wet, or windy it might be!

Date:

Astronomy

Apr. 10, 2014 Rise Set
Actual Time 7:13 AM EDT 8:19 PM EDT
Civil Twilight 6:45 AM EDT 8:47 PM EDT
Nautical Twilight 6:11 AM EDT 9:21 PM EDT
Astronomical Twilight 5:36 AM EDT 9:56 PM EDT
Moon 4:00 PM EDT (4/10) 4:38 AM EDT (4/10)
Length of Visible Light 14h 02m
Length of Day
13h 05m
Waxing Gibbous, 79% of the Moon is Illuminated
Apr 10
Waxing Gibbous
Apr 15
Full
Apr 22
Last Quarter
Apr 29
New
May 6
First Quarter

Hourly Weather History & Observations

Time (EDT) Temp. Dew Point Humidity Pressure Visibility Wind Dir Wind Speed Gust Speed Precip Events Conditions
12:15 AM 51.8 °F 35.6 °F 54% 29.96 in 10.0 mi SSW 6.9 mph - N/A   Clear
12:35 AM 51.8 °F 35.6 °F 54% 29.96 in 10.0 mi SSW 9.2 mph - N/A   Clear
12:55 AM 50.0 °F 35.6 °F 58% 29.96 in 10.0 mi SSW 6.9 mph - N/A   Clear
1:15 AM 50.0 °F 35.6 °F 58% 29.96 in 10.0 mi SSW 9.2 mph - N/A   Clear
1:35 AM 50.0 °F 35.6 °F 58% 29.95 in 10.0 mi SSW 8.1 mph - N/A   Clear
1:55 AM 50.0 °F 35.6 °F 58% 29.95 in 10.0 mi SSW 8.1 mph - N/A   Clear
2:15 AM 50.0 °F 35.6 °F 58% 29.93 in 10.0 mi South 8.1 mph - N/A   Clear
2:35 AM 50.0 °F 35.6 °F 58% 29.93 in 10.0 mi SSW 10.4 mph 16.1 mph N/A   Clear
2:55 AM 50.0 °F 35.6 °F 58% 29.93 in 10.0 mi SSW 10.4 mph - N/A   Clear
3:15 AM 50.0 °F 35.6 °F 58% 29.92 in 10.0 mi South 10.4 mph - N/A   Clear
3:35 AM 48.2 °F 35.6 °F 62% 29.91 in 10.0 mi South 10.4 mph 16.1 mph N/A   Clear
3:55 AM 50.0 °F 35.6 °F 58% 29.90 in 10.0 mi South 11.5 mph 18.4 mph N/A   Clear
4:15 AM 50.0 °F 35.6 °F 58% 29.89 in 10.0 mi SSW 11.5 mph 17.3 mph N/A   Clear
4:35 AM 48.2 °F 35.6 °F 62% 29.89 in 10.0 mi SSW 10.4 mph - N/A   Clear
4:55 AM 48.2 °F 35.6 °F 62% 29.89 in 10.0 mi SSW 10.4 mph 17.3 mph N/A   Clear
5:15 AM 50.0 °F 35.6 °F 58% 29.88 in 10.0 mi SSW 10.4 mph 18.4 mph N/A   Clear
5:35 AM 50.0 °F 35.6 °F 58% 29.87 in 10.0 mi SSW 9.2 mph 16.1 mph N/A   Clear
5:55 AM 50.0 °F 35.6 °F 58% 29.87 in 10.0 mi SSW 11.5 mph 21.9 mph N/A   Clear
6:15 AM 48.2 °F 35.6 °F 62% 29.87 in 10.0 mi SSW 13.8 mph - N/A   Clear
6:35 AM 50.0 °F 35.6 °F 58% 29.86 in 10.0 mi SSW 12.7 mph 19.6 mph N/A   Clear
6:55 AM 50.0 °F 35.6 °F 58% 29.85 in 10.0 mi South 13.8 mph 19.6 mph N/A   Clear
7:15 AM 50.0 °F 35.6 °F 58% 29.85 in 10.0 mi SSW 13.8 mph 17.3 mph N/A   Clear
7:35 AM 50.0 °F 35.6 °F 58% 29.84 in 10.0 mi SSW 13.8 mph 20.7 mph N/A   Clear
7:55 AM 51.8 °F 35.6 °F 54% 29.84 in 10.0 mi SSW 13.8 mph 21.9 mph N/A   Clear
8:15 AM 51.8 °F 35.6 °F 54% 29.84 in 10.0 mi SSW 17.3 mph 20.7 mph N/A   Clear
8:35 AM 51.8 °F 35.6 °F 54% 29.83 in 10.0 mi SSW 15.0 mph 25.3 mph N/A   Clear
8:55 AM 53.6 °F 35.6 °F 51% 29.83 in 10.0 mi South 16.1 mph 23.0 mph N/A   Clear
9:15 AM 53.6 °F 35.6 °F 51% 29.82 in 10.0 mi SSW 18.4 mph 26.5 mph N/A   Clear
9:35 AM 55.4 °F 37.4 °F 51% 29.81 in 10.0 mi SSW 15.0 mph 21.9 mph N/A   Clear
9:55 AM 57.2 °F 37.4 °F 48% 29.82 in 10.0 mi SSW 17.3 mph 24.2 mph N/A   Clear
10:15 AM 57.2 °F 37.4 °F 48% 29.81 in 10.0 mi SSW 16.1 mph 24.2 mph N/A   Clear
10:55 AM 60.8 °F 39.2 °F 45% 29.80 in 10.0 mi SSW 16.1 mph 24.2 mph N/A   Clear
11:15 AM 62.6 °F 39.2 °F 42% 29.81 in 10.0 mi SW 20.7 mph 26.5 mph N/A   Clear
11:35 AM 62.6 °F 39.2 °F 42% 29.80 in 10.0 mi SSW 17.3 mph 31.1 mph N/A   Clear
11:55 AM 62.6 °F 39.2 °F 42% 29.79 in 10.0 mi SSW 17.3 mph 33.4 mph N/A   Clear
12:15 PM 64.4 °F 41.0 °F 42% 29.78 in 10.0 mi SSW 20.7 mph 32.2 mph N/A   Clear
12:35 PM 66.2 °F 41.0 °F 40% 29.78 in 10.0 mi SSW 19.6 mph 29.9 mph N/A   Clear
12:55 PM 68.0 °F 41.0 °F 37% 29.78 in 10.0 mi SW 21.9 mph 28.8 mph N/A   Clear
1:15 PM 68.0 °F 41.0 °F 37% 29.78 in 10.0 mi SW 20.7 mph 29.9 mph N/A   Clear
1:35 PM 68.0 °F 39.2 °F 35% 29.78 in 10.0 mi WSW 20.7 mph 29.9 mph N/A   Clear
1:55 PM 68.0 °F 41.0 °F 37% 29.78 in 10.0 mi WSW 18.4 mph 26.5 mph N/A   Clear
2:15 PM 68.0 °F 41.0 °F 37% 29.78 in 10.0 mi SW 21.9 mph 31.1 mph N/A   Clear
2:35 PM 68.0 °F 41.0 °F 37% 29.78 in 10.0 mi WSW 19.6 mph 31.1 mph N/A   Clear
2:55 PM 68.0 °F 41.0 °F 37% 29.78 in 10.0 mi West 16.1 mph 27.6 mph N/A   Clear
3:15 PM 68.0 °F 41.0 °F 37% 29.78 in 10.0 mi WSW 18.4 mph 26.5 mph N/A   Clear
3:35 PM 68.0 °F 41.0 °F 37% 29.78 in 10.0 mi WSW 23.0 mph 29.9 mph N/A   Clear
3:55 PM 68.0 °F 42.8 °F 40% 29.79 in 10.0 mi WSW 15.0 mph 25.3 mph N/A   Clear
4:15 PM 69.8 °F 42.8 °F 38% 29.79 in 10.0 mi SW 19.6 mph 31.1 mph N/A   Clear
4:35 PM 69.8 °F 42.8 °F 38% 29.79 in 10.0 mi West 17.3 mph 29.9 mph N/A   Scattered Clouds
4:55 PM 69.8 °F 42.8 °F 38% 29.79 in 10.0 mi West 17.3 mph 23.0 mph N/A   Scattered Clouds
5:15 PM 69.8 °F 42.8 °F 38% 29.78 in 10.0 mi West 15.0 mph 18.4 mph N/A   Clear
5:35 PM 68.0 °F 42.8 °F 40% 29.79 in 10.0 mi West 9.2 mph - N/A   Clear
5:55 PM 68.0 °F 42.8 °F 40% 29.80 in 10.0 mi West 10.4 mph - N/A   Clear
6:15 PM 66.2 °F 42.8 °F 43% 29.82 in 10.0 mi West 10.4 mph - N/A   Scattered Clouds
6:35 PM 64.4 °F 42.8 °F 45% 29.82 in 10.0 mi West 8.1 mph - N/A   Scattered Clouds
6:55 PM 64.4 °F 42.8 °F 45% 29.82 in 10.0 mi West 8.1 mph - N/A   Mostly Cloudy
7:15 PM 62.6 °F 44.6 °F 52% 29.84 in 10.0 mi WNW 11.5 mph - N/A Rain Light Rain
7:35 PM 59.0 °F 46.4 °F 63% 29.85 in 10.0 mi NW 10.4 mph - N/A Rain Light Rain
7:55 PM 59.0 °F 46.4 °F 63% 29.86 in 10.0 mi WNW 6.9 mph - N/A Rain Light Rain
8:15 PM 57.2 °F 46.4 °F 67% 29.87 in 10.0 mi West 5.8 mph - N/A Rain Light Rain
8:35 PM 57.2 °F 46.4 °F 67% 29.87 in 10.0 mi WSW 3.5 mph - N/A Rain Light Rain
8:55 PM 55.4 °F 48.2 °F 77% 29.88 in 10.0 mi WSW 3.5 mph - N/A Rain Light Rain
9:15 PM 55.4 °F 48.2 °F 77% 29.90 in 10.0 mi West 6.9 mph - N/A Rain Rain
9:35 PM 55.4 °F 48.2 °F 77% 29.90 in 10.0 mi West 4.6 mph - N/A   Light Drizzle
9:55 PM 55.4 °F 48.2 °F 77% 29.91 in 10.0 mi Calm Calm - N/A   Clear
10:15 PM 53.6 °F 48.2 °F 82% 29.91 in 10.0 mi WSW 3.5 mph - N/A   Scattered Clouds
10:35 PM 53.6 °F 48.2 °F 82% 29.92 in 10.0 mi WSW 3.5 mph - N/A   Scattered Clouds
10:55 PM 55.4 °F 48.2 °F 77% 29.91 in 10.0 mi WSW 3.5 mph - N/A   Scattered Clouds
11:15 PM 53.6 °F 48.2 °F 82% 29.91 in 10.0 mi Calm Calm - N/A   Clear
11:35 PM 50.0 °F 44.6 °F 82% 29.91 in 10.0 mi Calm Calm - N/A   Clear
11:55 PM 50.0 °F 48.2 °F 94% 29.92 in 10.0 mi Calm Calm - N/A   Clear